Flag for Mexico Weather past 2 weeks in Ojinaga, Chihuahua, Mexico

Now
61 °F

Clear.


Feels Like: 61 °F
Forecast: 70 / 98 °F
Wind: 8 mph from North

Location: Marfa Municipal Airport

Current Time: Aug 28, 2014 at 7:29:02 AM

Latest Report: Aug 28, 2014 at 6:55 AM


Visibility: 10 mi

Pressure: 30.19 "Hg

Humidity: 83%

Dew point: 55 °F

Location of OjinagaLocation

Historic Weather in Ojinaga — Graph

°F

Ojinaga temperature yesterday

Maximum temperature yesterday: 88 °F (at 2:15 PM)
Minimum temperature yesterday: 57 °F (at 3:55 AM)
Average temperature yesterday: 72 °F

Past Weeks' High & Low Weather Summary

 TemperatureHumidityPressure
High88 °F (Aug 14, 4:35 PM)94% (Aug 13, 6:15 AM)30.31 "Hg (Aug 13, 6:15 AM)
Low57 °F (Aug 18, 5:35 AM)25% (Aug 24, 4:35 PM)30.00 "Hg (Aug 19, 5:15 PM)
Average73 °F63%30.16 "Hg
* Reported Aug 13 6:15 AM — Aug 28 6:35 AM, Ojinaga, Weather by CustomWeather, © 2014

Note: Actual official high and low records may vary slightly from our data, if they occured in-between our weather recording intervals... More about our weather records

Advertising

Ojinaga weather history for previous 24 hours

 ConditionsComfort  
Time TempWeatherWind HumidityBarometerVisibility
6:35 AM
Aug 28
61 °FClear.3 mph83%30.18 "Hg10 mi
5:35 AM61 °FClear.5 mph83%30.17 "Hg10 mi
5:15 AM61 °FPassing clouds.6 mph83%30.17 "Hg10 mi
4:55 AM63 °FPassing clouds.5 mph77%30.17 "Hg10 mi
4:35 AM61 °FClear.7 mph83%30.17 "Hg10 mi
4:15 AM61 °FClear.6 mph83%30.17 "Hg10 mi
3:55 AM61 °FClear.6 mph83%30.17 "Hg10 mi
3:35 AM61 °FClear.7 mph83%30.17 "Hg10 mi
3:15 AM63 °FClear.7 mph77%30.18 "Hg10 mi
2:55 AM63 °FClear.7 mph77%30.18 "Hg10 mi
2:35 AM63 °FClear.3 mph77%30.18 "Hg10 mi
1:55 AM63 °FClear.5 mph77%30.18 "Hg10 mi
1:35 AM63 °FClear.7 mph77%30.19 "Hg10 mi
1:15 AM64 °FClear.7 mph73%30.19 "Hg10 mi
12:55 AM63 °FClear.6 mph77%30.19 "Hg10 mi
12:35 AM64 °FClear.5 mph73%30.20 "Hg10 mi
12:15 AM64 °FClear.3 mph73%30.20 "Hg10 mi
11:55 PM
Aug 27
66 °FClear.6 mph68%30.21 "Hg10 mi
11:35 PM66 °FClear.6 mph73%30.21 "Hg10 mi
11:15 PM66 °FPassing clouds.6 mph73%30.21 "Hg10 mi
10:55 PM68 °FPassing clouds.6 mph69%30.21 "Hg10 mi
10:35 PM68 °FClear.6 mph69%30.21 "Hg10 mi
10:15 PM70 °FClear.3 mph64%30.21 "Hg10 mi
9:55 PM72 °FClear.5 mph61%30.21 "Hg10 mi
9:35 PM72 °FClear.5 mph61%30.21 "Hg9 mi
9:15 PM73 °FPassing clouds.3 mph53%30.21 "Hg10 mi
8:55 PM75 °FPassing clouds.8 mph50%30.21 "Hg10 mi
8:35 PM75 °FClear.9 mph50%30.21 "Hg10 mi
8:15 PM77 °FPassing clouds.7 mph44%30.21 "Hg10 mi
7:55 PM77 °FSunny.8 mph47%30.20 "Hg10 mi
7:35 PM79 °FSunny.6 mph45%30.20 "Hg10 mi
7:15 PM79 °FBroken clouds.10 mph42%30.19 "Hg10 mi
6:55 PM79 °FPartly sunny.10 mph45%30.19 "Hg10 mi
6:35 PM81 °FPartly sunny.8 mph42%30.18 "Hg10 mi
6:15 PM81 °FOvercast.9 mph39%30.18 "Hg10 mi
5:55 PM82 °FOvercast.9 mph37%30.18 "Hg10 mi
5:35 PM82 °FOvercast.12 mph37%30.18 "Hg10 mi
5:15 PM84 °FOvercast.12 mph35%30.18 "Hg10 mi
4:55 PM84 °FPartly sunny.14 mph33%30.19 "Hg10 mi
4:35 PM84 °FPartly sunny.12 mph35%30.18 "Hg10 mi
4:15 PM84 °FPartly sunny.13 mph35%30.19 "Hg10 mi
3:55 PM82 °FScattered clouds.9 mph37%30.19 "Hg10 mi
3:35 PM82 °FPartly sunny.14 mph37%30.20 "Hg10 mi
3:15 PM84 °FMostly cloudy.7 mph31%30.20 "Hg10 mi
2:55 PM84 °FMostly cloudy.8 mph31%30.21 "Hg10 mi
2:15 PM88 °FPartly sunny.7 mph29%30.23 "Hg10 mi
1:55 PM86 °FPartly sunny.8 mph31%30.23 "Hg10 mi
1:35 PM86 °FScattered clouds.10 mph33%30.24 "Hg10 mi
1:15 PM86 °FPartly sunny.8 mph33%30.25 "Hg10 mi
12:55 PM84 °FScattered clouds.3 mph33%30.26 "Hg10 mi
11:55 AM82 °FPassing clouds.5 mph37%30.28 "Hg10 mi
11:35 AM82 °FSunny.7 mph37%30.28 "Hg10 mi
11:15 AM81 °FSunny.3 mph42%30.28 "Hg10 mi
10:35 AM79 °FSunny.No wind42%30.28 "Hg10 mi
10:15 AM79 °FSunny.3 mph45%30.28 "Hg10 mi
9:55 AM77 °FSunny.6 mph47%30.28 "Hg10 mi
8:55 AM73 °FSunny.5 mph53%30.28 "Hg10 mi
8:35 AM72 °FSunny.3 mph57%30.27 "Hg10 mi
8:15 AM72 °FSunny.3 mph57%30.27 "Hg10 mi
7:55 AM66 °FSunny.No wind73%30.26 "Hg10 mi
7:35 AM64 °FSunny.3 mph78%30.26 "Hg10 mi
7:15 AM59 °FClear.No wind88%30.25 "Hg10 mi
Weather by CustomWeather, © 2014

See weather overviewHow to use our weather pages